CW0925 Weather Reports


Display with metric or nautical units.
time (UTC)temp
F
wind
direction
speed
MPH
gust
MPH
rain 1hr
in
rain 24hr
in
rain mn
in
humidity
%
barometer
mb
20260508161334 85 195 5.0 11.0 0.00 0.00 0.00 72 1017.9
20260508160342 85 178 6.0 15.0 0.00 0.00 0.00 72 1018.2
20260508155324 85 182 7.0 12.0 0.00 0.00 0.00 73 1018.3
20260508154344 84 40 8.0 14.0 0.00 0.00 0.00 75 1018.4
20260508153318 85 197 5.0 10.0 0.00 0.00 0.00 76 1018.4
20260508152335 84 206 5.0 11.0 0.00 0.00 0.00 76 1018.5
20260508151334 85 219 5.0 12.0 0.00 0.00 0.00 76 1018.5
20260508150401 84 203 6.0 12.0 0.00 0.00 0.00 76 1018.6
20260508145322 84 178 5.0 11.0 0.00 0.00 0.00 78 1018.6
20260508144317 84 181 7.0 13.0 0.00 0.00 0.00 77 1018.5
20260508143336 84 155 6.0 14.0 0.00 0.00 0.00 80 1018.4
20260508142332 84 205 5.0 11.0 0.00 0.00 0.00 81 1018.1
20260508141327 84 172 8.0 13.0 0.00 0.00 0.00 81 1018.1
20260508140338 84 128 6.0 12.0 0.00 0.00 0.00 80 1018.0
20260508135320 85 180 5.0 12.0 0.00 0.00 0.00 80 1017.8
20260508134335 85 124 4.0 10.0 0.00 0.00 0.00 80 1017.7
20260508133351 84 218 4.0 9.0 0.00 0.00 0.00 81 1017.7
20260508132331 84 192 4.0 9.0 0.00 0.00 0.00 82 1017.7
20260508131346 84 130 5.0 10.0 0.00 0.00 0.00 82 1017.7
20260508130331 84 161 4.0 9.0 0.00 0.00 0.00 82 1017.7
20260508125334 84 108 4.0 10.0 0.00 0.00 0.00 83 1017.6
20260508124353 84 174 4.0 10.0 0.00 0.00 0.00 83 1017.5
20260508123328 84 159 3.0 6.0 0.00 0.00 0.00 83 1017.4
20260508122324 84 194 0.0 2.0 0.00 0.00 0.00 83 1017.4
20260508121323 84 205 0.0 4.0 0.00 0.00 0.00 83 1017.3
20260508120330 85 232 0.0 1.0 0.00 0.00 0.00 82 1017.2
20260508115332 84 236 0.0 0.0 0.00 0.00 0.00 85 1017.1
20260508114327 82 214 0.0 0.0 0.00 0.00 0.00 87 1017.0
20260508113326 82 250 0.0 0.0 0.00 0.00 0.00 87 1017.0
20260508112323 81 250 0.0 0.0 0.00 0.00 0.00 89 1016.8
20260508111318 81 250 0.0 0.0 0.00 0.00 0.00 90 1016.7
20260508110349 80 250 0.0 0.0 0.00 0.00 0.00 90 1016.6
20260508105331 80 254 0.0 0.0 0.00 0.00 0.00 89 1016.5
20260508104325 80 254 0.0 0.0 0.00 0.00 0.00 89 1016.4
20260508103321 80 254 0.0 0.0 0.00 0.00 0.00 89 1016.1
20260508102321 81 238 0.0 0.0 0.00 0.00 0.00 89 1016.1
20260508101316 81 247 0.0 3.0 0.00 0.00 0.00 89 1015.9
20260508100342 80 253 0.0 1.0 0.00 0.00 0.00 90 1015.8
20260508095330 80 268 0.0 0.0 0.00 0.00 0.00 90 1015.9
20260508094324 80 315 0.0 0.0 0.00 0.00 0.00 91 1015.9
20260508093320 80 278 0.0 2.0 0.00 0.00 0.00 90 1015.9
20260508092320 80 280 0.0 0.0 0.00 0.00 0.00 90 1016.0
20260508091335 81 280 0.0 0.0 0.00 0.00 0.00 90 1016.0
20260508090340 81 272 1.0 2.0 0.00 0.00 0.00 91 1016.0
20260508085323 81 286 2.0 7.0 0.00 0.00 0.00 91 1015.9
20260508084322 80 272 1.0 4.0 0.00 0.00 0.00 91 1015.8
20260508083317 81 330 2.0 5.0 0.00 0.00 0.00 91 1015.8
20260508082334 81 270 1.0 3.0 0.00 0.00 0.00 91 1015.8
20260508081350 81 260 0.0 3.0 0.00 0.00 0.00 91 1015.8
20260508080359 81 310 1.0 3.0 0.00 0.00 0.00 91 1015.9
20260508075320 81 307 1.0 5.0 0.00 0.00 0.00 91 1015.8
20260508074336 81 290 1.0 3.0 0.00 0.00 0.00 91 1016.0
20260508073329 81 275 1.0 4.0 0.00 0.00 0.00 91 1015.9
20260508072330 81 280 1.0 5.0 0.00 0.00 0.00 90 1015.9
20260508071346 81 300 2.0 3.0 0.00 0.00 0.00 90 1016.0
20260508070332 81 290 2.0 4.0 0.00 0.00 0.00 89 1016.1
20260508065318 81 292 1.0 3.0 0.00 0.00 0.00 88 1016.1
20260508064334 81 305 0.0 1.0 0.00 0.00 0.00 84 1016.2
20260508063329 81 132 0.0 0.0 0.00 0.00 0.00 83 1016.2
20260508062325 81 132 0.0 1.0 0.00 0.00 0.00 83 1016.4
20260508061324 81 168 0.0 0.0 0.00 0.00 0.00 84 1016.6
20260508060330 81 156 0.0 0.0 0.00 0.00 0.00 83 1016.6
20260508055332 81 156 0.0 0.0 0.00 0.00 0.00 83 1016.6
20260508054333 81 156 0.0 0.0 0.00 0.00 0.00 83 1016.6
20260508053328 81 156 0.0 0.0 0.00 0.00 0.00 82 1016.7
20260508052325 81 156 0.0 0.0 0.00 0.00 0.00 82 1016.7
20260508051340 81 156 0.0 0.0 0.00 0.00 0.00 83 1016.9
20260508050349 81 156 0.0 0.0 0.00 0.00 0.00 81 1016.9
20260508045351 81 156 0.0 0.0 0.00 0.00 0.00 82 1017.0
20260508044325 81 156 0.0 0.0 0.00 0.00 0.00 83 1017.1
20260508043324 81 156 0.0 0.0 0.00 0.00 0.00 84 1017.2
20260508042341 81 156 0.0 1.0 0.00 0.00 0.00 86 1017.2
20260508041335 81 156 0.0 0.0 0.00 0.00 0.00 85 1017.3
20260508040342 81 156 0.0 0.0 0.00 0.00 0.00 85 1017.2
20260508035328 81 156 0.0 1.0 0.00 0.00 0.00 85 1017.2
20260508034322 82 156 0.0 0.0 0.00 0.00 0.00 86 1017.2
20260508033318 82 156 0.0 0.0 0.00 0.00 0.00 85 1017.2
20260508032354 82 156 0.0 1.0 0.00 0.00 0.00 86 1017.2
20260508031332 82 163 0.0 1.0 0.00 0.00 0.00 86 1017.1
20260508030339 82 172 1.0 5.0 0.00 0.00 0.00 86 1017.1
20260508025323 82 160 2.0 4.0 0.00 0.00 0.00 86 1017.1
20260508024322 82 191 2.0 6.0 0.00 0.00 0.00 87 1016.9
20260508023317 82 166 4.0 8.0 0.00 0.00 0.00 88 1016.8
20260508022334 82 197 2.0 6.0 0.00 0.00 0.00 88 1016.8
20260508021329 82 195 3.0 5.0 0.00 0.00 0.00 88 1016.7
20260508020340 82 122 2.0 4.0 0.00 0.00 0.00 87 1016.6
20260508015322 83 190 1.0 6.0 0.00 0.00 0.00 86 1016.6
20260508014317 83 201 3.0 8.0 0.00 0.00 0.00 86 1016.6
20260508013357 83 190 2.0 5.0 0.00 0.00 0.00 85 1016.5
20260508012332 83 184 3.0 5.0 0.00 0.00 0.00 85 1016.4
20260508011347 83 193 3.0 6.0 0.00 0.00 0.00 84 1016.5
20260508010332 83 194 4.0 9.0 0.00 0.00 0.00 83 1016.4
20260508005320 84 190 4.0 7.0 0.00 0.00 0.00 82 1016.3
20260508004335 84 225 4.0 6.0 0.00 0.00 0.00 82 1016.3
20260508003331 84 130 4.0 8.0 0.00 0.00 0.00 82 1016.2
20260508002331 84 172 3.0 7.0 0.00 0.00 0.00 81 1016.2
20260508001327 84 128 4.0 8.0 0.00 0.00 0.00 81 1016.1
20260508000335 85 173 4.0 9.0 0.00 0.00 0.00 79 1016.1
20260507235336 85 151 5.0 10.0 0.00 0.00 0.00 77 1016.1
20260507234356 86 171 2.0 8.0 0.00 0.00 0.00 77 1016.1
20260507233330 86 171 3.0 6.0 0.00 0.00 0.00 76 1016.1
20260507232346 86 100 3.0 5.0 0.00 0.00 0.00 78 1016.1
20260507231322 86 103 0.0 1.0 0.00 0.00 0.00 81 1016.2
20260507230333 86 236 1.0 3.0 0.00 0.00 0.00 81 1016.0
20260507225334 85 291 1.0 4.0 0.00 0.00 0.00 82 1016.0
20260507224330 85 259 2.0 7.0 0.00 0.00 0.00 80 1016.0
20260507223349 87 239 2.0 7.0 0.00 0.00 0.00 78 1016.1
20260507222344 87 304 1.0 4.0 0.00 0.00 0.00 77 1016.2
20260507221318 87 302 0.0 5.0 0.00 0.00 0.00 78 1016.2
20260507220345 87 255 1.0 5.0 0.00 0.00 0.00 77 1016.1
20260507215331 87 282 0.0 4.0 0.00 0.00 0.00 78 1016.1
20260507214325 87 229 1.0 5.0 0.00 0.00 0.00 78 1016.1
20260507213321 87 332 2.0 9.0 0.00 0.00 0.00 77 1016.1
20260507212321 87 358 3.0 7.0 0.00 0.00 0.00 77 1016.1
20260507211336 87 282 5.0 10.0 0.00 0.00 0.00 79 1016.1
20260507210342 87 285 3.0 10.0 0.00 0.00 0.00 79 1016.3
20260507205324 88 298 5.0 8.0 0.00 0.00 0.00 78 1016.2
20260507204323 88 295 4.0 9.0 0.00 0.00 0.00 76 1016.4
20260507203319 88 280 1.0 7.0 0.00 0.00 0.00 76 1016.4
20260507202335 87 276 4.0 8.0 0.00 0.00 0.00 77 1016.5
20260507201330 89 17 0.0 5.0 0.00 0.00 0.00 75 1016.5
20260507200342 88 226 0.0 7.0 0.00 0.00 0.00 77 1016.5
20260507195324 88 270 2.0 7.0 0.00 0.00 0.00 77 1016.6
20260507194341 87 259 3.0 9.0 0.00 0.00 0.00 78 1016.7
20260507193320 88 349 2.0 7.0 0.00 0.00 0.00 78 1016.8
20260507192337 88 323 2.0 7.0 0.00 0.00 0.00 78 1016.8
20260507191332 87 18 2.0 9.0 0.00 0.00 0.00 80 1016.9
20260507190339 87 292 4.0 8.0 0.00 0.00 0.00 79 1017.1
20260507185345 86 308 6.0 10.0 0.00 0.00 0.00 80 1017.2
20260507184319 86 263 4.0 10.0 0.00 0.00 0.00 82 1017.3
20260507183335 86 268 5.0 9.0 0.00 0.00 0.00 80 1017.4
20260507182330 87 279 3.0 9.0 0.00 0.00 0.00 80 1017.4
20260507181329 86 284 6.0 10.0 0.00 0.00 0.00 80 1017.5
20260507180355 86 253 5.0 11.0 0.00 0.00 0.00 81 1017.7
20260507175317 87 309 5.0 12.0 0.00 0.00 0.00 80 1017.7
20260507174332 87 287 3.0 9.0 0.00 0.00 0.00 80 1017.9
20260507173332 87 326 4.0 10.0 0.00 0.00 0.00 80 1018.1
20260507172329 86 312 5.0 9.0 0.00 0.00 0.00 80 1018.2
20260507171324 87 246 4.0 9.0 0.00 0.00 0.00 81 1018.3
20260507170334 87 268 5.0 9.0 0.00 0.00 0.00 80 1018.4
20260507165336 87 262 3.0 8.0 0.00 0.00 0.00 80 1018.4
20260507164332 87 255 4.0 8.0 0.00 0.00 0.00 79 1018.5
20260507163331 86 222 4.0 9.0 0.00 0.00 0.00 80 1018.6
20260507162328 85 359 3.0 9.0 0.00 0.00 0.00 81 1018.8